Location: Faicchio
(41.2833°N, 14.4833°E)
Time: 06:41:37
(UTC+00:00)

H-2A R/B - Pass Details

Date: 15 June 2025
Orbit: 492 x 572 km, 98.2° (Epoch: 16 July)

Event Time Altitude Azimuth Distance (km) Brightness Sun altitude
Exits shadow 01:06:19 14° 286° (WNW) 1,442 4.3 -19.3°
Drops below altitude 10° 01:07:35 10° 305° (NW) 1,699 4.9 -19.2°
Sets 01:10:18 0° 328° (NNW) 2,583 6.1 -18.9°
